sat.trackr.live / text

‹ back to catalog

CMS-03 (GSAT-7R)

NORAD 66311 · 2025-249B

PAYLOAD ACTIVE UNKNOWN

§ Identity

Operator
Country
IND
Launch date
2025-11-02
Launch site
SRILR
Launch vehicle
Mass (kg)
RCS (m²)

Purposes: comms

External: N2YO · Heavens-Above · Gunter

§ Orbital elements

Epoch: 2026-05-25T04:05:45.234816Z

Period
1,436.09 min
Inclination
0.0070°
Eccentricity
0.0002408
Mean motion
1.00271920 rev/d
Perigee alt
35,776.4 km
Apogee alt
35,796.7 km
Semi-major
42,164.7 km
B*
0.0000e+0
RAAN
29.3827°
Arg perigee
11.7721°
Mean anomaly
337.0123°
Rev number
211

§ Raw data

CMS-03 (GSAT-7R)1 66311U 25249B   26145.17066244 -.00000079  00000+0  00000+0 0  99922 66311   0.0070  29.3827 0002408  11.7721 337.0123  1.00271920  2115

JSON: /api/v1/satellites/66311 · /tle

For live sub-satellite position, see the globe view (requires WebGL).

§ Visibility from observer

Set your observer location to see the next 7 days of passes ≥ 10°. The values pass through the URL so the page stays shareable.

No JS? Fill the form by hand. The geolocation button needs JavaScript.